Weather History for KMIW - January, 2014

Change the Weather History Date:

Wednesday, January 29, 2014

  Actual Average Record
Temperature  
Mean Temperature 17 °F 20 °F  
Max Temperature 35 °F 29 °F 55 °F (2013)
Min Temperature -2 °F 11 °F -13 °F (2004)
Degree Days  
Heating Degree Days 48 45  
Month to date heating degree days 1515 1332  
Since 1 July heating degree days 4519 4144  
Cooling Degree Days 0 0  
Month to date cooling degree days 0 0  
Year to date cooling degree days 0 0  
Moisture  
Dew Point 3 °F    
Average Humidity 54    
Maximum Humidity 75    
Minimum Humidity 32    
Precipitation  
Precipitation 0.00 in 0.04 in 0.33 in (2001)
Month to date precipitation 0.07 0.78  
Sea Level Pressure  
Sea Level Pressure 30.03 in    
Wind  
Wind Speed 14 mph (SSW)    
Max Wind Speed 25 mph    
Max Gust Speed 32 mph    
Visibility 10 miles    
Events      
T = Trace of Precipitation, MM = Missing Value Source: NWS Daily Summary

Daily Weather History Graph

Daily Weather History Graph

Search for Another Location

Airport or City:

Trip Planner

Search our weather history database for the weather conditions in past years. The results will help you decide how hot, cold, wet, or windy it might be!

Date:

Astronomy

Jan. 29, 2014 Rise Set
Actual Time 7:27 AM CST 5:22 PM CST
Civil Twilight 6:57 AM CST 5:52 PM CST
Nautical Twilight 6:24 AM CST 6:26 PM CST
Astronomical Twilight 5:51 AM CST 6:59 PM CST
Moon 6:04 AM CST (1/29) 4:22 PM CST (1/29)
Length of Visible Light 10h 54m
Length of Day
9h 54m
Waning Crescent, 2% of the Moon is Illuminated
Jan 29
Waning Crescent
Jan 30
New
Feb 6
First Quarter
Feb 14
Full
Feb 22
Last Quarter

Hourly Weather History & Observations

Time (CST) Temp. Windchill Dew Point Humidity Pressure Visibility Wind Dir Wind Speed Gust Speed Precip Events Conditions
12:53 AM -0.9 °F -12.7 °F -8.0 °F 72% 30.27 in 10.0 mi WSW 5.8 mph - N/A   Clear
1:53 AM -0.0 °F -15.3 °F -8.0 °F 69% 30.25 in 10.0 mi WSW 9.2 mph - N/A   Clear
2:53 AM -0.9 °F -11.0 °F -8.0 °F 72% 30.24 in 10.0 mi WSW 4.6 mph - N/A   Clear
3:53 AM 1.0 °F -14.9 °F -7.1 °F 69% 30.22 in 10.0 mi SW 10.4 mph - N/A   Clear
4:53 AM -0.9 °F -14.1 °F -8.0 °F 72% 30.22 in 10.0 mi WSW 6.9 mph - N/A   Clear
5:53 AM -0.0 °F -11.6 °F -8.0 °F 69% 30.20 in 10.0 mi SW 5.8 mph - N/A   Clear
6:53 AM -0.0 °F -13.0 °F -8.0 °F 69% 30.20 in 10.0 mi SW 6.9 mph - N/A   Clear
7:53 AM 1.9 °F -11.8 °F -6.0 °F 69% 30.19 in 10.0 mi SSW 8.1 mph - N/A   Clear
8:53 AM 9.0 °F -4.2 °F -2.0 °F 61% 30.17 in 10.0 mi SSW 9.2 mph - N/A   Clear
9:53 AM 15.1 °F 0.5 °F 1.9 °F 56% 30.14 in 10.0 mi SSW 13.8 mph - N/A   Clear
10:53 AM 19.9 °F 8.6 °F 3.9 °F 50% 30.14 in 10.0 mi SW 10.4 mph - N/A   Clear
11:53 AM 26.1 °F 13.6 °F 6.1 °F 43% 30.09 in 10.0 mi SSW 16.1 mph - N/A   Clear
12:53 PM 30.0 °F 18.7 °F 7.0 °F 38% 30.04 in 10.0 mi SSW 16.1 mph - N/A   Clear
1:53 PM 33.1 °F 20.9 °F 7.0 °F 34% 29.99 in 10.0 mi SSW 21.9 mph - N/A   Clear
2:53 PM 34.0 °F 21.8 °F 7.0 °F 32% 29.95 in 10.0 mi SSW 23.0 mph 29.9 mph N/A   Clear
3:53 PM 34.0 °F 23.0 °F 10.0 °F 37% 29.92 in 10.0 mi South 18.4 mph - N/A   Clear
4:53 PM 32.0 °F 20.5 °F 12.0 °F 44% 29.89 in 10.0 mi South 18.4 mph - N/A   Clear
5:53 PM 30.0 °F 18.3 °F 12.0 °F 47% 29.87 in 10.0 mi South 17.3 mph - N/A   Clear
6:53 PM 30.0 °F 17.2 °F 12.0 °F 47% 29.85 in 10.0 mi South 20.7 mph - N/A   Clear
7:53 PM 28.9 °F 16.5 °F 12.0 °F 49% 29.84 in 10.0 mi South 18.4 mph - N/A   Clear
8:53 PM 28.9 °F 15.8 °F 14.0 °F 54% 29.80 in 10.0 mi South 20.7 mph - N/A   Clear
9:53 PM 28.9 °F 16.1 °F 12.9 °F 51% 29.78 in 10.0 mi South 19.6 mph - N/A   Clear
10:53 PM 28.9 °F 15.8 °F 12.0 °F 49% 29.75 in 10.0 mi South 20.7 mph 31.1 mph N/A   Clear
11:53 PM 28.9 °F 15.1 °F 12.0 °F 49% 29.72 in 10.0 mi South 23.0 mph - N/A   Clear